412  
NZUS93 KARX 200310  
HRRWXR  
 
CURRENT HOURLY OBSERVATIONS ACROSS  
MUCH OF THE UPPER MISSISSIPPI VALLEY  
NATIONAL WEATHER SERVICE LA CROSSE WI  
1000 PM CDT FRI AUG 19 2022  
 
   
..SOUTHEAST MINNESOTA
 
 
 
CITY SKY/WX TMP DP RH WIND PRES REMARKS  
ROCHESTER CLOUDY 60 58 92 E5 29.85S  
WINONA MOCLDY 63 63 100 CALM 29.87R  
AUSTIN MOCLDY 63 61 94 E5 29.84S  
ALBERT LEA MOCLDY 64 63 94 E5 29.83S  
DODGE CENTER CLOUDY 61 61 100 CALM 29.85S  
PRESTON MOCLDY 60 58 94 NE3 29.86F  
OWATONNA RAIN 63 61 94 E8 29.84R  
FARIBAULT CLOUDY 64 61 88 NE3 29.85R  

 
   
..ELSEWHERE IN MINNESOTA
 
 
 
CITY SKY/WX TMP DP RH WIND PRES REMARKS  
MINNEAPOLIS PTCLDY 67 61 81 E8 29.86R  
INTNL FALLS PTCLDY 67 63 87 NE3 29.96R  
DULUTH CLOUDY 63 61 93 E10 29.94R FOG  
RED WING LGT RAIN 63 61 94 CALM 29.85S  
REDWOOD FALLS CLEAR 64 61 90 N3 29.85R  
MANKATO CLOUDY 64 61 90 E8 29.84R  
WORTHINGTON MOCLDY 62 62 100 N9 29.85R  
FAIRMONT CLOUDY 64 62 93 E9 29.81R  

 
   
..SOUTHWEST WISCONSIN
 
 
 
CITY SKY/WX TMP DP RH WIND PRES REMARKS  
LA CROSSE LGT RAIN 64 61 90 N5 29.85R  
PRAIRIE DU CHI MOCLDY 69 67 92 CALM 29.84R  
BOSCOBEL MOCLDY 69 64 84 VRB3 29.84S THUNDER  
LONE ROCK HVY RAIN 65 63 93 E8 29.84F FOG  
PLATTEVILLE CLOUDY 68 64 86 SE7 29.85F  
FORT MC COY LGT RAIN 64 64 99 CALM 29.87R  
CAMP DOUGLAS MOCLDY 63 63 98 CALM 29.85R  
MAUSTON-NEW LI MOCLDY 67 67 100 CALM 29.87R FOG  
VIROQUA N/A 67 67 100 E5 29.86R  
WIS DELLS MOCLDY 68 62 80 SE9 29.87S  

 
   
..ELSEWHERE IN WISCONSIN
 
 
 
CITY SKY/WX TMP DP RH WIND PRES REMARKS  
MILWAUKEE MOCLDY 73 65 75 E6 29.92S  
MADISON MOCLDY 74 61 63 S12 29.87F  
GREEN BAY CLOUDY 71 66 84 S3 29.92R  
EAU CLAIRE MOCLDY 67 63 87 NE3 29.86S  
BLACK RVR FLS MOCLDY 64 62 94 CALM 29.87S  
MEDFORD MOCLDY 62 62 100 NE5 29.91S  
WAUSAU MOCLDY 68 63 84 E5 29.90R  
WIS RAPIDS MOCLDY 70 64 81 CALM 29.89R THUNDER  
MARSHFIELD TSTM 66 65 96 S3 29.90R FOG  
RICE LAKE N/A 66 63 89 E3 29.91R  

 
   
..NORTHEAST IOWA
 
 
 
CITY SKY/WX TMP DP RH WIND PRES REMARKS  
WATERLOO MOCLDY 65 63 93 CALM 29.83R  
DUBUQUE TSTM 65 62 90 SW23 29.86R FOG  
DECORAH MOCLDY 64 64 100 N3 29.84F  
MASON CITY LGT RAIN 64 63 96 S7 29.83S  
CHARLES CITY CLOUDY 63 63 100 E5 29.82F  
OELWEIN PTCLDY 63 61 94 SE6 29.86R  

 
   
..ELSEWHERE IN IOWA
 
 
 
CITY SKY/WX TMP DP RH WIND PRES REMARKS  
DES MOINES LGT RAIN 67 64 90 SW6 29.86F  
IOWA CITY MOCLDY 67 62 84 NE3 29.87R  
FORT DODGE LGT RAIN 66 62 87 SW14 29.82S  
MARSHALLTOWN LGT RAIN 64 59 83 SW8 29.85R  
CEDAR RAPIDS LGT RAIN 64 62 93 E6 29.85F  

 
   
..NORTHERN ILLINOIS
 
 
 
CITY SKY/WX TMP DP RH WIND PRES REMARKS  
CHICAGO-OHARE CLOUDY 78 60 53 S10 29.93R  
CHICAGO-MIDWAY CLOUDY 81 59 47 S8 29.94R  
MOLINE LGT RAIN 69 64 84 SW7 29.85F  
ROCKFORD TSTM 72 64 76 VRB5 29.91S  
PEORIA MOCLDY 75 64 68 S13 29.90S  

 
 
NOTE: "FAIR" INDICATES FEW OR NO CLOUDS BELOW 12,000 FEET WITH NO  
SIGNIFICANT WEATHER AND/OR OBSTRUCTIONS TO VISIBILITY. WIND  
SPEEDS ARE IN MILES-PER-HOUR.  
 
 
CLICK HERE TO GO TO PREVIOUS BULLETINS.

The Nexlab WI Page
The Nexlab IA Page
The Nexlab MN Page Main Text Page